K1FFK-1 Weather Reports


time (UTC)temp
F
wind
direction
speed
knots
gust
knots
rain 1hr
in
rain 24hr
in
rain mn
in
humidity
%
barometer
mb
20260506231134 46 315 5.2 5.2 0.00 0.00 0.00 99 1009.1
20260506230135 47 320 7.0 7.0 0.00 0.00 0.00 99 1009.1
20260506225134 49 315 5.2 5.2 0.00 0.00 0.00 99 1009.0
20260506224133 51 303 0.9 0.9 0.00 0.00 0.00 99 1008.8
20260506223134 51 196 3.5 3.5 0.00 0.00 0.00 99 1008.7
20260506222133 51 234 2.6 2.6 0.00 0.00 0.00 99 1008.6
20260506221134 51 196 3.5 3.5 0.00 0.00 0.00 99 1008.7
20260506220133 51 232 2.6 2.6 0.00 0.00 0.00 99 1008.8
20260506215133 51 217 2.6 2.6 0.00 0.00 0.00 99 1008.8
20260506214133 51 201 2.6 2.6 0.00 0.00 0.00 99 1008.8
20260506213134 51 215 1.7 1.7 0.00 0.00 0.00 99 1008.8
20260506212133 51 188 1.7 1.7 0.00 0.00 0.00 99 1008.8
20260506211133 50 210 3.5 3.5 0.00 0.00 0.00 99 1008.9
20260506210133 50 219 3.5 3.5 0.00 0.00 0.00 99 1009.0
20260506205134 50 208 3.5 3.5 0.00 0.00 0.00 99 1009.0
20260506204134 50 198 2.6 2.6 0.00 0.00 0.00 100 1008.8
20260506203134 50 212 3.5 3.5 0.00 0.00 0.00 100 1009.0
20260506202134 50 202 5.2 5.2 0.00 0.00 0.00 100 1009.1
20260506201133 50 202 2.6 2.6 0.00 0.00 0.00 100 1009.1
20260506200134 50 203 4.3 4.3 0.00 0.00 0.00 100 1008.9
20260506195134 50 210 4.3 4.3 0.00 0.00 0.00 100 1009.2
20260506194134 50 199 6.1 6.1 0.00 0.00 0.00 100 1009.2
20260506193134 50 205 4.3 4.3 0.00 0.00 0.00 100 1008.9
20260506192240 50 203 6.1 6.1 0.00 0.00 0.00 100 1009.2
20260506192133 50 203 6.1 6.1 0.00 0.00 0.00 100 1009.2
20260506191134 50 205 4.3 4.3 0.00 0.00 0.00 100 1009.5
20260506190134 50 206 4.3 4.3 0.00 0.00 0.00 100 1009.5
20260506185135 50 205 3.5 3.5 0.00 0.00 0.00 100 1009.7
20260506184134 50 194 7.0 7.0 0.00 0.00 0.00 100 1009.7
20260506183134 50 208 4.3 4.3 0.00 0.00 0.00 100 1009.8
20260506182134 50 202 3.5 3.5 0.00 0.00 0.00 100 1009.9
20260506181134 50 194 3.5 3.5 0.00 0.00 0.00 100 1010.1
20260506180133 50 202 5.2 5.2 0.00 0.00 0.00 100 1010.0
20260506175134 50 199 4.3 4.3 0.00 0.00 0.00 100 1010.1
20260506174134 50 201 4.3 4.3 0.00 0.00 0.00 100 1010.3
20260506173134 50 187 5.2 5.2 0.00 0.00 0.00 100 1010.2
20260506172133 50 188 4.3 4.3 0.00 0.00 0.00 100 1010.5
20260506171134 50 208 4.3 4.3 0.00 0.00 0.00 100 1010.8
20260506170138 50 203 5.2 5.2 0.00 0.00 0.00 100 1010.9
20260506170134 50 203 5.2 5.2 0.00 0.00 0.00 100 1010.9
20260506165133 50 180 4.3 4.3 0.00 0.00 0.00 100 1011.2
20260506164133 50 184 3.5 3.5 0.00 0.00 0.00 100 1011.3
20260506163134 50 194 4.3 4.3 0.00 0.00 0.00 100 1011.2
20260506162134 50 191 4.3 4.3 0.00 0.00 0.00 100 1011.4
20260506161133 50 191 3.5 3.5 0.00 0.00 0.00 100 1011.5
20260506160134 50 202 4.3 4.3 0.00 0.00 0.00 100 1011.5
20260506155134 50 195 4.3 4.3 0.00 0.00 0.00 100 1011.5
20260506154134 50 222 2.6 2.6 0.00 0.00 0.00 100 1011.6
20260506153134 50 227 2.6 2.6 0.00 0.00 0.00 100 1011.7
20260506152133 50 194 2.6 2.6 0.00 0.00 0.00 100 1011.9
20260506151133 51 208 2.6 2.6 0.00 0.00 0.00 100 1012.2
20260506150134 51 196 2.6 2.6 0.00 0.00 0.00 100 1012.5
20260506145133 51 184 2.6 2.6 0.00 0.00 0.00 100 1012.4
20260506144134 51 202 3.5 3.5 0.00 0.00 0.00 100 1012.4
20260506143133 51 220 4.3 4.3 0.00 0.00 0.00 100 1012.4
20260506142133 51 201 3.5 3.5 0.00 0.00 0.00 100 1012.4
20260506141133 51 185 3.5 3.5 0.00 0.00 0.00 100 1012.2
20260506140134 51 196 2.6 2.6 0.00 0.00 0.00 100 1012.3
20260506135133 51 210 4.3 4.3 0.00 0.00 0.00 100 1012.3
20260506134134 51 201 3.5 3.5 0.00 0.00 0.00 100 1012.0
20260506133133 51 194 4.3 4.3 0.00 0.00 0.00 100 1012.0
20260506132133 50 202 2.6 2.6 0.00 0.00 0.00 100 1012.0
20260506131134 50 202 3.5 3.5 0.00 0.00 0.00 100 1012.0
20260506130133 50 205 3.5 3.5 0.00 0.00 0.00 100 1012.2
20260506125133 50 205 3.5 3.5 0.00 0.00 0.00 100 1012.4
20260506124134 50 191 2.6 2.6 0.00 0.00 0.00 100 1012.5
20260506123133 50 192 4.3 4.3 0.00 0.00 0.00 100 1012.6
20260506122133 50 199 4.3 4.3 0.00 0.00 0.00 100 1012.6
20260506121133 50 172 4.3 4.3 0.00 0.00 0.00 100 1012.6
20260506120134 49 187 4.3 4.3 0.00 0.00 0.00 100 1012.4
20260506115134 49 180 5.2 5.2 0.00 0.00 0.00 100 1012.4
20260506114133 49 184 5.2 5.2 0.00 0.00 0.00 99 1012.3
20260506113134 49 191 5.2 5.2 0.00 0.00 0.00 99 1012.2
20260506112134 49 181 5.2 5.2 0.00 0.00 0.00 99 1012.4
20260506111134 49 194 4.3 4.3 0.00 0.00 0.00 98 1012.5
20260506110133 49 194 5.2 5.2 0.00 0.00 0.00 98 1012.5
20260506105133 49 177 4.3 4.3 0.00 0.00 0.00 97 1012.4
20260506104134 50 194 4.3 4.3 0.00 0.00 0.00 96 1012.4
20260506103134 50 196 4.3 4.3 0.00 0.00 0.00 95 1012.4
20260506102133 50 192 4.3 4.3 0.00 0.00 0.00 94 1012.4
20260506101134 50 191 5.2 5.2 0.00 0.00 0.00 94 1012.3
20260506100134 50 194 3.5 3.5 0.00 0.00 0.00 93 1012.3
20260506095133 50 187 5.2 5.2 0.00 0.00 0.00 92 1012.4
20260506094134 51 196 4.3 4.3 0.00 0.00 0.00 91 1012.3
20260506093134 51 191 4.3 4.3 0.00 0.00 0.00 91 1012.2
20260506092133 51 196 4.3 4.3 0.00 0.00 0.00 90 1012.3
20260506091134 51 187 5.2 5.2 0.00 0.00 0.00 90 1012.6
20260506090134 51 196 5.2 5.2 0.00 0.00 0.00 90 1012.6
20260506085133 51 202 3.5 3.5 0.00 0.00 0.00 89 1012.5
20260506084134 51 198 4.3 4.3 0.00 0.00 0.00 88 1012.6
20260506083135 51 196 6.1 6.1 0.00 0.00 0.00 88 1012.6
20260506082134 51 191 5.2 5.2 0.00 0.00 0.00 88 1012.7
20260506081133 51 194 5.2 5.2 0.00 0.00 0.00 88 1012.8
20260506080135 52 188 4.3 4.3 0.00 0.00 0.00 87 1012.9
20260506073133 51 188 4.3 4.3 0.00 0.00 0.00 87 1013.2
20260506072133 51 191 3.5 3.5 0.00 0.00 0.00 87 1013.3
20260506071133 52 201 3.5 3.5 0.00 0.00 0.00 87 1013.1
20260506070133 52 194 4.3 4.3 0.00 0.00 0.00 85 1013.4
20260506062134 53 201 2.6 2.6 0.00 0.00 0.00 83 1013.4
20260506061134 53 203 2.6 2.6 0.00 0.00 0.00 82 1013.6
20260506060134 53 208 2.6 2.6 0.00 0.00 0.00 81 1013.7
20260506051133 53 300 2.6 2.6 0.00 0.00 0.00 79 1014.2
20260506050133 54 187 0.9 0.9 0.00 0.00 0.00 78 1014.3
20260506045134 54 215 0.9 0.9 0.00 0.00 0.00 77 1014.3
20260506044136 54 201 1.7 1.7 0.00 0.00 0.00 77 1014.2
20260506043134 55 220 1.7 1.7 0.00 0.00 0.00 76 1014.3
20260506042134 56 187 1.7 1.7 0.00 0.00 0.00 73 1014.4
20260506041135 56 203 1.7 1.7 0.00 0.00 0.00 70 1014.2
20260506040133 57 198 3.5 3.5 0.00 0.00 0.00 68 1014.2
20260506035134 57 195 5.2 5.2 0.00 0.00 0.00 68 1014.0
20260506034135 57 201 3.5 3.5 0.00 0.00 0.00 68 1014.0
20260506033133 57 194 4.3 4.3 0.00 0.00 0.00 69 1014.3
20260506032134 56 187 4.3 4.3 0.00 0.00 0.00 72 1014.3
20260506031133 56 191 3.5 3.5 0.00 0.00 0.00 72 1014.6
20260506030133 56 199 2.6 2.6 0.00 0.00 0.00 75 1014.5
20260506025133 56 191 4.3 4.3 0.00 0.00 0.00 76 1014.6
20260506024134 56 194 3.5 3.5 0.00 0.00 0.00 76 1014.7
20260506023134 56 196 2.6 2.6 0.00 0.00 0.00 75 1014.8
20260506022134 56 191 2.6 2.6 0.00 0.00 0.00 73 1014.9
20260506021134 57 184 3.5 3.5 0.00 0.00 0.00 73 1014.8
20260506020133 57 198 3.5 3.5 0.00 0.00 0.00 72 1014.8
20260506015134 56 194 4.3 4.3 0.00 0.00 0.00 75 1014.6
20260506014133 55 192 3.5 3.5 0.00 0.00 0.00 77 1014.6
20260506013134 56 191 3.5 3.5 0.00 0.00 0.00 82 1014.5
20260506012134 57 196 3.5 3.5 0.00 0.00 0.00 72 1014.4
20260506011133 56 199 4.3 4.3 0.00 0.00 0.00 73 1014.2
20260506010135 55 192 3.5 3.5 0.00 0.00 0.00 77 1014.2
20260506005133 56 195 3.5 3.5 0.00 0.00 0.00 79 1014.2
20260506004134 56 196 2.6 2.6 0.00 0.00 0.00 73 1014.1
20260506003134 56 208 2.6 2.6 0.00 0.00 0.00 73 1013.9
20260506002135 55 196 2.6 2.6 0.00 0.00 0.00 75 1013.7
20260506001133 55 203 2.6 2.6 0.00 0.00 0.00 78 1013.6
20260506000134 54 258 0.9 0.9 0.00 0.00 0.00 80 1013.7
20260505235134 54 286 2.6 2.6 0.00 0.00 0.00 83 1013.7
20260505234133 54 310 4.3 4.3 0.00 0.00 0.00 80 1013.5
20260505233134 54 313 8.7 8.7 0.00 0.00 0.00 84 1013.4
20260505232134 53 315 7.8 7.8 0.00 0.00 0.00 87 1013.2